Buchanan Airport


Codes: GLBU/UCN
Name: Buchanan Airport
City: Buchanan
Country: Liberia
Elevation: 41 ft.
Wikipedia:

Photos at Buchanan Airport


   Photos courtesy of SpottingLog. You can add your own sightings and photos by signing up for a free trial today.



No photos found.

Weather at Buchanan Airport


Time (UTC)DescriptionTempratureWindCloud coverageVisibilityPressureHumidity
21-Jun-2024 12:00Moderate Rain27°C11 mph, S97%10000m1014hPa81%
21-Jun-2024 15:00Light Rain27°C13 mph, S97%10000m1013hPa80%
21-Jun-2024 18:00Light Rain26°C11 mph, S98%10000m1013hPa80%
21-Jun-2024 21:00Light Rain26°C9 mph, S100%10000m1014hPa82%
22-Jun-2024 00:00Overcast Clouds26°C7 mph, S99%10000m1014hPa81%
22-Jun-2024 03:00Overcast Clouds26°C7 mph, S92%10000m1012hPa82%
22-Jun-2024 06:00Overcast Clouds26°C7 mph, S95%10000m1013hPa82%
22-Jun-2024 09:00Light Rain26°C7 mph, S100%10000m1015hPa81%
22-Jun-2024 12:00Light Rain27°C9 mph, S98%10000m1014hPa76%
22-Jun-2024 15:00Light Rain27°C11 mph, SW59%10000m1013hPa75%
22-Jun-2024 18:00Light Rain27°C11 mph, SW57%10000m1013hPa78%
22-Jun-2024 21:00Light Rain26°C11 mph, S74%10000m1014hPa84%
23-Jun-2024 00:00Light Rain25°C9 mph, S79%10000m1014hPa86%
23-Jun-2024 03:00Light Rain26°C9 mph, S92%10000m1012hPa83%
23-Jun-2024 06:00Light Rain25°C9 mph, S92%10000m1013hPa85%
23-Jun-2024 09:00Light Rain26°C9 mph, S98%10000m1014hPa83%
23-Jun-2024 12:00Light Rain27°C9 mph, S97%10000m1014hPa76%
23-Jun-2024 15:00Light Rain27°C11 mph, S85%10000m1012hPa76%
23-Jun-2024 18:00Light Rain27°C9 mph, S88%10000m1013hPa80%
23-Jun-2024 21:00Overcast Clouds26°C9 mph, S92%10000m1014hPa82%
24-Jun-2024 00:00Light Rain26°C9 mph, S96%10000m1014hPa82%
24-Jun-2024 03:00Light Rain25°C9 mph, S100%10000m1012hPa84%
24-Jun-2024 06:00Light Rain25°C7 mph, S100%10000m1013hPa86%
24-Jun-2024 09:00Light Rain26°C9 mph, S95%10000m1015hPa82%
24-Jun-2024 12:00Light Rain27°C11 mph, S97%10000m1014hPa78%
24-Jun-2024 15:00Light Rain27°C13 mph, S100%10000m1012hPa76%
24-Jun-2024 18:00Light Rain26°C11 mph, S96%10000m1012hPa79%
24-Jun-2024 21:00Light Rain26°C9 mph, S69%10000m1014hPa83%
25-Jun-2024 00:00Light Rain26°C9 mph, S74%10000m1014hPa83%
25-Jun-2024 03:00Light Rain25°C9 mph, S89%10000m1012hPa85%
25-Jun-2024 06:00Light Rain25°C9 mph, S90%10000m1013hPa84%
25-Jun-2024 09:00Light Rain26°C9 mph, S99%10000m1014hPa80%
25-Jun-2024 12:00Light Rain26°C9 mph, S99%10000m1014hPa80%
25-Jun-2024 15:00Light Rain27°C11 mph, S82%10000m1012hPa75%
25-Jun-2024 18:00Light Rain27°C9 mph, S80%10000m1012hPa78%
25-Jun-2024 21:00Broken Clouds26°C9 mph, S70%10000m1013hPa83%
26-Jun-2024 00:00Light Rain25°C9 mph, S79%10000m1013hPa84%
26-Jun-2024 03:00Light Rain26°C9 mph, SW96%10000m1012hPa83%
26-Jun-2024 06:00Light Rain25°C7 mph, SW96%10000m1013hPa83%
26-Jun-2024 09:00Light Rain27°C9 mph, SW93%10000m1014hPa78%